Weather in Kozmodemyansk

Russia / Yaroslavl Oblast     57°29′29″N   39°41′16″E
В апреле 2022 года жителям России запретили посещать сайт meteo.paraplan.net по решению Генеральной прокуратуры. Аудитория сайта уменьшилась в 10 раз. Владельцы сайта не видят смысла в поддержке погодного сервера в таких условиях. Сайт будет закрыт в октябре.
temp.,
°C
wind,
m/s
gust,
m/s
humid.,
%
clouds,
%
prec.,
mm/h
press.,
hPa
HPBL,
m
4 october, tue
tue400:00+9sse8158225 0.0 1007947
03:00+10se7148227 0.0 1008822
06:00+8se716886 0.0 1009650
09:00+11sse715775 0.0 1010872
12:00+14sse916655 0.0 10101642
15:00+14sse9156698 0.3 10101592
18:00+12sse91575100 0.5 1011977
21:00+11sse61384100 1.3 1011834
5 october, wed
wed500:00+10ssw4891100 0.9 1010654
03:00+8s2691100 1.1 1010226
06:00+8s5985100 0.5 1011649
09:00+8s358491 0.6 1011662
12:00+8ssw2380100 0.3 1012693
15:00+8ssw2285100 0.6 1013270
18:00+6wsw2491100 0.8 1013369
21:00+6wsw238986 0.8 1013161
6 october, thu
thu600:00+6wnw2590100 0.1 1014245
03:00+5wnw359295 0.1 1015251
06:00+3wnw25955 0.0 1015103
09:00+6wnw34845 0.0 1016237
12:00+9w346812 0.0 1016882
15:00+10wsw446233 0.0 10161139
18:00+7ssw37822 0.0 1016121
21:00+8ssw51178100 0.0 1014366
7 october, fri
fri700:00+8ssw6139571 0.0 1012378
03:00+10wsw61292100 0.0 1011702
06:00+10w6129149 1.3 1012611
09:00+10wnw71281100 1.3 10141161
12:00+10w71375100 0.0 1016954
15:00+11w7137832 0.0 1017985
18:00+10w714780 0.0 1018643
21:00+9w613830 0.0 1020524
8 october, sat
sat800:00+8wsw512911 0.0 1021373
03:00+6wsw49956 0.0 1021208
06:00+6sw410968 0.0 1021212
09:00+8sw51088100 0.0 1021332
12:00+12sw697163 0.0 1020688
15:00+13sw69657 0.0 1019921
18:00+11ssw51278100 0.0 1018383
21:00+9ssw61483100 0.0 1016515